Cloud_Cover
100 100 63 94 100 20 0 0 0 0 78 100 100 100 100 100 100 100 100 100 97 24 95 35 82 100 87 10 84 99 57 33
89 100 100 53 89 90 0 0 0 0 57 100 100 100 100 100 100 100 100 100 100 30 87 100 93 13 6 60 55 84 5 9
43 100 100 71 100 100 40 8 5 24 100 100 100 100 100 100 100 100 100 100 100 29 10 59 30 5 96 100 31 70 5 9
84 100 100 100 100 100 100 100 77 100 100 98 100 100 100 100 100 100 100 100 100 100 88 92 62 95 60 99 99 34 5 85
100 100 100 100 100 100 100 100 100 51 100 100 100 100 100 100 100 100 100 100 100 100 100 100 100 86 60 88 66 21 94 100
100 100 100 100 100 100 100 100 100 98 97 100 100 100 100 100 100 94 100 100 100 100 93 85 64 52 33 78 100 46 73 95
100 100 100 63 90 100 100 100 100 100 91 99 100 100 100 100 100 99 100 100 100 93 89 79 68 56 98 98 54 97 75 100
100 100 100 60 97 91 100 100 100 100 100 100 100 100 100 100 100 100 100 100 100 92 36 62 99 16 92 99 93 100 66 100
100 100 100 30 99 90 100 100 100 100 100 100 100 100 100 100 100 100 100 100 100 99 95 89 100 100 95 23 100 100 100 100
100 98 60 77 69 84 100 100 100 100 100 100 100 100 100 100 100 100 100 100 100 100 100 46 97 99 99 74 100 100 100 100
100 95 99 94 100 100 100 100 100 100 100 100 100 100 100 100 100 100 100 100 100 100 100 100 98 100 100 99 81 100 100 92
100 100 78 88 100 96 79 100 100 96 100 100 100 100 100 100 100 100 100 100 100 100 100 100 100 100 97 77 75 99 83 67
100 100 72 98 100 100 100 98 94 78 94 100 100 100 100 100 100 100 100 100 100 100 100 100 100 86 93 73 100 100 100 100
100 98 85 100 100 80 100 100 100 89 100 100 100 100 100 100 100 100 100 100 100 100 100 100 100 100 84 96 100 98 88 93
100 100 100 100 100 89 100 100 100 100 100 100 100 100 100 100 100 100 100 100 100 100 100 100 100 100 100 100 100 96 100 74
100 100 100 100 95 45 100 100 100 98 100 100 100 100 100 100 100 100 100 100 100 100 100 100 100 100 100 100 86 84 94 89
100 100 100 100 57 4 100 100 100 100 100 100 100 100 100 100 100 100 100 100 100 100 100 100 100 100 100 100 100 100 69 100
100 100 100 100 72 61 97 38 100 100 100 100 100 100 100 100 100 100 100 100 100 100 100 100 100 100 100 100 100 100 100 100
100 100 100 100 78 98 100 52 100 100 100 100 100 100 100 100 100 100 100 100 100 100 100 100 100 100 100 100 100 100 100 100
100 85 100 100 100 100 100 58 80 100 100 100 99 100 100 100 100 100 100 100 100 100 100 100 100 100 100 100 100 100 100 100